Regional Weather Roundup
Issued by NWS

Home | Current Version | Previous Version | Graphics & Text | Print | Product List | Glossary On
Versions: 1 2 3 4 5 6 7 8 9 10 11 12 13 14 15 16 17 18 19 20 21 22 23 24 25 26 27 28 29
000
ASUS45 KCYS 280910
RWRWY

WYOMING REGIONAL WEATHER ROUNDUP
NATIONAL WEATHER SERVICE CHEYENNE WY
300 AM MDT THU APR 28 2016

NOTE:  "FAIR" INDICATES FEW OR NO CLOUDS BELOW 12,000 FEET
WITH NO SIGNIFICANT WEATHER AND/OR OBSTRUCTIONS TO VISIBILITY.

WYZ001-281000-
YELLOWSTONE NATIONAL PARK

CITY           SKY/WX    TMP DP  RH WIND       PRES   REMARKS
LK YELLOWSTONE   N/A     29  21  72 CALM      29.88F
W YELLOWSTONE  NOT AVBL

$$
WYZ002>013-054>058-071-098>099-281000-
NORTHERN WYOMING

CITY           SKY/WX    TMP DP  RH WIND       PRES   REMARKS
JACKSON        CLOUDY    36  28  75 N7        29.83S WCI  30
CODY           CLOUDY    30  28  93 N8        29.96S WCI  23
GREYBULL       CLOUDY    36  30  79 NW12      29.95S WCI  28
WORLAND        CLOUDY    34  33  96 NE3       29.96S
SHERIDAN       FLURRIES  32  31  96 N7        29.99S WCI  26
BUFFALO        CLOUDY    30  28  92 NW9       29.96S WCI  22
GILLETTE       CLOUDY    29  29 100 N5        29.96S WCI  24
HULETT         CLOUDY    32  30  93 N5        29.97R FOG     WCI  27
NEWCASTLE      CLOUDY    32  28  86 N8        29.94S WCI  25

$$
WYZ014>020-022>026-101>103-281000-
CENTRAL WYOMING

CITY           SKY/WX    TMP DP  RH WIND       PRES   REMARKS
BIG PINEY      CLOUDY    33  28  81 SW6       29.86F WCI  28
PINEDALE       FLURRIES  32  32 100 NW3       29.86F
DUBOIS         LGT SNOW  28  28 100 SE8       29.87S WCI  20
LANDER         CLOUDY    34  31  88 E7        29.91S WCI  28
RIVERTON       CLOUDY    34  29  82 NE8       29.92F WCI  27
CASPER         CLOUDY    31  27  85 N6        29.93F WCI  25
DOUGLAS        CLOUDY    32  30  92 NW9       29.94S WCI  24

$$
WYZ021-027>030-104>119-281000-
SOUTHERN WYOMING

CITY           SKY/WX    TMP DP  RH WIND       PRES   REMARKS
EVANSTON       CLOUDY    34  29  82 E16G26    29.75F WCI  24
FORT BRIDGER   CLOUDY    32  32 100 E14       29.82F WCI  22
ROCK SPRINGS   MOCLDY    32  26  78 NE17      29.84F WCI  21
DIXON          CLOUDY    33  28  82 NE5       29.84F WCI  29
RAWLINS        FAIR      27  23  85 NE7       29.90R WCI  19
SARATOGA       CLOUDY    30  27  86 W6        29.89S WCI  24
LARAMIE        CLOUDY    27  23  85 CALM      29.89F
CHEYENNE       CLOUDY    30  27  88 W9        29.91S WCI  22
TORRINGTON     CLOUDY    32  29  88 NE6       29.92S WCI  26
PINE BLUFFS    CLOUDY    30  30 100 W6        29.93S WCI  24

$$




USA.gov is the U.S. government's official web portal to all federal, state and local government web resources and services.